Пополнение складов продукцией testo

Рады сообщить о поступлении на наши склады в Санкт-Петербурге большой партии контрольно-измерительного оборудования testo. Спешите сделать заказ, чтобы приобрести приборы от знаменитого немецкого брэнда в кратчайшие сроки и по лучшей цене. Держим вас в курсе последних поступлений:

Артикул Наименование Количество на складе в СПб
0563 0510 Дифференциальный манометр testo 510 10 шт. на 20.06.2024
0560 0540 Люксметр testo 540 15 шт. на 20.06.2024
0560 0610 Термогигрометр testo 610 10 шт. на 20.06.2024
0560 0810 Пирометр testo 810 5 шт. на 20.06.2024
0560 4053 Анемометр testo 405 10 шт. на 20.06.2024
0560 4101 Термоанемометр testo 410-1 10 шт. на 20.06.2024
0560 4102 Термоанемометр testo 410-2 4 шт. на 20.06.2024
0560 4251 Термоанемометр testo 425 1 шт. на 20.06.2024
0560 6053 Термогигрометр testo 605-H1 5 шт. на 20.06.2024
0563 6251 Термогигрометр testo 625 2 шт. на 20.06.2024
0560 6060 Карманный влагомер testo 606-1 5 шт. на 20.06.2024
0560 6062 Карманный влагомер testo 606-2 3 шт. на 20.06.2024
0560 6081 Термогигрометр testo 608-H1 93 шт. на 20.06.2024
0560 6082 Термогигрометр testo 608-H2 10 шт. на 20.06.2024
0560 6220 Термогигрометр testo 622 14 шт. на 20.06.2024
0560 8311 Пирометр testo 830-T1 24 шт. на 20.06.2024
0560 8312 Пирометр testo 830-T2 5 шт. на 20.06.2024
0560 0103 Складной термометр testo 103 12 шт. на 20.06.2024
0563 0104 Термометр testo 104 10 шт. на 20.06.2024
0563 1054 Термометр testo 105 5 шт. на 20.06.2024
0560 1063 Термометр testo 106 18 шт. на 20.06.2024
0560 9055 Термометр testo 905-Т1 5 шт. на 20.06.2024
0560 9056 Термометр testo 905-Т2 2 шт. на 20.06.2024
0572 1560 Логгер температуры testo 174 T 1 шт. на 20.06.2024
0572 6560 Логгер влажности testo 174 H 10 шт. на 20.06.2024
0563 2061 Карманный pH-метр testo 206 pH1 8 шт. на 20.06.2024
0563 2062 Карманный pH-метр testo 206 pH2 15 шт. на 20.06.2024
0560 1410 Смарт-зонд testo 410i 2 шт. на 20.06.2024
0560 1510 Смарт-зонд testo 510i 4 шт. на 20.06.2024
0560 1805 Смарт-зонд testo 805i 3 шт. на 20.06.2024
0560 2605 02 Смарт-зонд testo 605i 3 шт. на 20.06.2024
0560 1405 Смарт-зонд testo 405i закончились
0560 1460 Тахометр testo 460 1 шт. на 20.06.2024

ООО "Невская Лаборатория", 2002-2024